Location: Austin
(30.3000°N, 97.7500°W)
Time: 11:40:50
(UTC-05:00)

IRS-1A Rocket - Pass Details

Date: 26 May 2023
Orbit: 851 x 931 km, 99.1° (Epoch: 30 May)

Event Time Altitude Azimuth Distance (km) Brightness Sun altitude
Exits shadow 22:47:01 50° 201° (SSW) 1,078 4.5 -25.5°
Maximum altitude 22:48:18 65° 258° (WSW) 928 4.4 -25.7°
Drops below altitude 10° 22:53:47 10° 340° (NNW) 2,487 7.5 -26.5°
Sets 22:56:11 0° 343° (NNW) 3,432 8.4 -26.8°
